FW6537 Weather Reports


time (UTC)temp
C
wind
direction
speed
KPH
gust
KPH
rain 1hr
cm
rain 24hr
cm
rain mn
cm
humidity
%
barometer
mb
20260506114627 7 131 1.6 8.0 0.28 1.32 0.74 95 1007.1
20260506113128 7 140 3.2 4.8 0.33 1.30 0.71 95 1007.4
20260506111642 7 135 0.0 1.6 0.25 1.19 0.61 95 1007.6
20260506110135 7 101 0.0 1.6 0.20 1.12 0.53 95 1007.4
20260506104634 7 101 0.0 1.6 0.18 1.04 0.46 95 1007.6
20260506103132 7 141 0.0 1.6 0.13 0.94 0.36 95 1007.2
20260506101629 7 142 0.0 0.0 0.13 0.91 0.33 94 1007.3
20260506100130 7 141 0.0 1.6 0.13 0.91 0.33 94 1007.5
20260506094630 7 135 0.0 3.2 0.13 0.86 0.28 94 1007.7
20260506093124 7 118 0.0 3.2 0.10 0.81 0.23 94 1008.1
20260506091639 7 109 3.2 8.0 0.10 0.79 0.20 94 1007.3
20260506090134 7 158 3.2 8.0 0.13 0.79 0.20 94 1008.0
20260506084622 8 111 1.6 8.0 0.10 0.74 0.15 94 1008.2
20260506083125 8 168 4.8 9.7 0.08 0.71 0.13 94 1008.1
20260506081646 8 156 1.6 8.0 0.05 0.69 0.10 95 1007.9
20260506080125 8 131 1.6 3.2 0.03 0.66 0.08 95 1008.1
20260506073143 8 126 0.0 0.0 0.00 0.64 0.05 95 1007.7
20260506071638 8 126 0.0 0.0 0.05 0.64 0.05 95 1007.6
20260506070153 8 126 0.0 0.0 0.05 0.64 0.05 95 1007.4
20260506061640 8 128 0.0 1.6 0.00 0.58 0.00 95 1008.3
20260506060135 9 108 1.6 4.8 0.00 0.58 0.00 95 1008.4
20260506050139 9 117 0.0 0.0 0.00 0.58 0.00 94 1008.9
20260506044645 9 117 0.0 0.0 0.00 0.58 0.00 94 1009.1
20260506043159 9 117 0.0 0.0 0.03 0.58 0.00 94 1009.1
20260506041635 9 116 0.0 0.0 0.08 0.58 0.00 94 1009.5
20260506040125 9 124 0.0 0.0 0.10 0.58 0.00 94 1009.3
20260506034623 9 124 0.0 0.0 0.13 0.58 0.58 94 1009.7
20260506033135 9 82 0.0 0.0 0.15 0.56 0.56 93 1009.7
20260506031627 9 117 0.0 0.0 0.13 0.51 0.51 93 1009.9
20260506030126 9 117 0.0 0.0 0.15 0.48 0.48 93 1009.7
20260506024640 9 116 0.0 0.0 0.13 0.46 0.46 93 1009.5
20260506023135 9 116 0.0 1.6 0.10 0.41 0.41 92 1009.7
20260506021628 9 89 0.0 3.2 0.10 0.38 0.38 92 1009.7
20260506020142 9 84 0.0 3.2 0.10 0.33 0.33 91 1008.9
20260506014637 9 110 1.6 3.2 0.10 0.33 0.33 90 1009.4
20260506013131 10 144 1.6 8.0 0.08 0.30 0.30 89 1009.4
20260506011627 10 133 1.6 6.4 0.05 0.28 0.28 85 1009.3
20260506010135 11 168 1.6 9.7 0.00 0.23 0.23 81 1009.1
20260506003145 13 133 1.6 6.4 0.00 0.23 0.23 71 1009.0
20260506001632 14 124 1.6 8.0 0.00 0.23 0.23 70 1008.3
20260506000139 14 123 1.6 11.3 0.00 0.23 0.23 70 1008.2
20260505234629 15 110 1.6 9.7 0.00 0.23 0.23 71 1007.5
20260505233140 15 60 3.2 12.9 0.00 0.23 0.23 70 1007.3
20260505231635 16 139 0.0 3.2 0.00 0.23 0.23 75 1006.6
20260505230126 16 130 0.0 6.4 0.00 0.23 0.23 78 1006.3
20260505224636 16 157 3.2 8.0 0.00 0.23 0.23 79 1006.1
20260505223145 16 136 0.0 9.7 0.00 0.23 0.23 80 1005.5
20260505221639 17 98 3.2 8.0 0.10 0.23 0.23 82 1005.0
20260505220126 17 141 3.2 8.0 0.13 0.23 0.23 85 1004.9
20260505214621 17 125 0.0 1.6 0.18 0.23 0.23 90 1004.9
20260505213121 17 90 1.6 3.2 0.18 0.23 0.23 88 1004.5
20260505211645 17 86 0.0 4.8 0.08 0.13 0.13 85 1004.5
20260505210147 19 68 0.0 3.2 0.05 0.10 0.10 78 1004.5
20260505204638 20 77 1.6 9.7 0.00 0.05 0.05 72 1004.1
20260505203138 20 15 3.2 4.8 0.00 0.05 0.05 70 1004.0
20260505201631 21 103 0.0 8.0 0.00 0.05 0.05 71 1004.1
20260505200129 21 68 1.6 9.7 0.00 0.05 0.05 70 1004.0
20260505194622 19 87 1.6 6.4 0.00 0.05 0.05 77 1003.9
20260505193136 18 91 3.2 6.4 0.00 0.05 0.05 81 1004.1
20260505191633 17 91 1.6 6.4 0.05 0.05 0.05 85 1004.3
20260505190130 17 83 0.0 1.6 0.05 0.05 0.05 86 1004.4
20260505184622 17 58 1.6 8.0 0.05 0.05 0.05 83 1004.4
20260505183125 17 79 9.7 24.1 0.05 0.05 0.05 79 1005.0
20260505181637 21 65 9.7 37.0 0.00 0.00 0.00 63 1004.2
20260505180129 23 110 4.8 20.9 0.00 0.00 0.00 52 1003.3
20260505174631 22 60 4.8 12.9 0.00 0.00 0.00 53 1003.3
20260505173130 22 63 4.8 16.1 0.00 0.00 0.00 54 1003.3
20260505171622 23 308 3.2 16.1 0.00 0.00 0.00 50 1003.2
20260505170139 23 90 4.8 12.9 0.00 0.00 0.00 50 1003.3
20260505164636 23 56 4.8 20.9 0.00 0.00 0.00 51 1003.0
20260505163129 23 97 4.8 19.3 0.00 0.00 0.00 51 1003.0
20260505160126 23 65 1.6 12.9 0.00 0.00 0.00 52 1003.0
20260505153147 23 33 4.8 11.3 0.00 0.00 0.00 52 1003.4
20260505151625 23 90 1.6 12.9 0.00 0.00 0.00 52 1003.5
20260505150124 24 73 6.4 19.3 0.00 0.00 0.00 50 1003.4
20260505140135 23 78 4.8 16.1 0.00 0.00 0.00 51 1002.8
20260505130155 22 56 8.0 19.3 0.00 0.00 0.00 55 1003.1
20260505124646 21 56 8.0 17.7 0.00 0.00 0.00 56 1003.2
20260505123158 21 60 4.8 16.1 0.00 0.00 0.00 58 1003.1
20260505121625 20 347 6.4 20.9 0.00 0.00 0.00 60 1003.1
20260505120147 20 27 6.4 16.1 0.00 0.00 0.00 61 1003.0